Dewpoint
71 71 74 75 75 75 76 75 75 74 74 74 73 73 73 73 73 72 71 71 71 71 70 70 70 70 71 71 71 72 72 72 72 72 72 72 72 72 71 71 71 70 70 71 71 70 71 71 72 71 71 71 71 70 71 71 71 71 71 71 71 71 71 70 70 70 69 69 68 68 68 67 68 68 67 67 67 66 65 64 64 63 63 64 65
71 73 74 75 75 75 75 75 75 74 74 73 73 73 73 72 72 72 71 71 71 70 70 70 70 71 71 71 72 72 72 72 73 72 72 72 72 72 71 71 70 70 70 70 71 71 71 71 71 71 71 71 71 70 70 70 71 71 71 71 71 71 71 71 70 70 69 68 68 68 67 67 67 67 67 67 67 67 66 65 65 64 63 65 65
71 73 74 75 75 75 75 75 75 74 73 73 73 73 73 72 71 71 71 71 70 70 70 70 71 71 71 71 72 72 72 72 72 72 72 72 72 72 71 71 71 70 71 71 71 71 70 71 71 71 71 70 70 70 70 69 71 71 71 71 71 71 71 70 70 69 68 68 68 67 67 67 66 67 67 67 67 66 66 66 67 66 64 66 66
71 72 74 75 75 75 74 75 74 74 74 73 73 73 72 72 71 71 71 71 70 70 71 71 71 71 72 72 72 72 72 72 72 72 72 72 72 71 71 71 71 70 71 70 70 70 70 71 71 70 71 70 71 70 70 70 71 71 71 71 71 71 71 70 70 69 67 67 67 67 67 65 65 67 67 66 65 65 65 66 66 67 67 67 67
71 73 74 74 74 74 74 74 74 74 74 73 73 72 72 72 71 71 71 70 70 71 71 71 71 72 72 72 72 72 72 72 72 72 72 72 72 72 72 72 71 71 70 70 70 70 70 70 71 70 70 70 70 70 70 70 70 70 70 70 71 70 71 70 70 68 67 67 66 66 63 63 63 66 66 67 67 66 65 65 64 65 66 66 65
71 72 73 74 74 74 74 74 74 74 73 73 73 72 72 71 71 71 71 71 71 71 71 71 72 72 72 72 72 72 72 72 72 72 72 72 72 72 72 72 71 71 71 70 70 71 71 71 71 70 70 70 70 70 70 70 69 69 69 70 70 70 69 70 69 69 70 70 66 62 62 64 65 67 69 69 68 67 66 64 64 64 64 64 64
70 71 72 73 73 74 74 74 74 73 73 73 73 72 72 71 71 71 71 71 70 71 71 72 72 72 72 72 72 72 72 73 72 72 72 72 72 72 71 71 71 71 71 70 70 71 71 71 71 70 70 70 69 69 69 69 69 69 69 69 68 68 68 68 69 68 70 71 67 62 63 65 65 65 68 68 67 67 66 65 64 64 63 63 64
69 70 72 72 73 73 74 74 73 73 73 73 72 72 72 71 71 71 71 70 70 71 71 71 72 72 72 72 72 72 72 72 72 72 72 72 73 72 71 71 71 71 70 70 71 71 70 70 70 69 68 68 68 68 68 68 67 67 67 67 67 67 67 67 67 67 67 67 64 64 65 66 66 66 68 67 66 66 65 65 64 64 63 64 64
69 71 72 72 73 74 73 73 73 73 73 72 72 72 71 71 71 71 70 70 70 70 70 70 71 71 72 72 72 72 72 72 72 72 72 71 71 71 71 71 70 70 70 71 71 70 69 69 70 69 68 67 66 67 66 66 66 66 66 67 66 68 67 69 69 70 70 64 64 65 65 66 66 66 67 66 65 64 64 64 64 64 64 64 64
70 71 72 72 72 73 73 73 73 72 72 72 71 71 71 71 70 70 70 70 70 70 70 70 70 71 72 72 73 72 72 72 72 72 72 71 71 71 71 70 70 70 70 70 70 70 70 70 69 68 67 67 67 67 66 66 66 66 67 68 67 68 68 69 71 67 63 63 63 64 65 67 65 66 66 66 65 65 65 65 64 64 64 65 65
70 70 71 72 72 73 73 72 73 72 72 71 71 71 70 70 70 70 70 70 70 70 70 70 70 71 71 72 72 73 72 72 72 72 72 71 71 70 70 70 70 70 70 69 69 70 70 70 70 69 67 67 66 66 66 66 67 66 67 68 67 68 69 70 70 61 64 64 65 65 66 67 65 65 67 66 65 65 65 65 65 65 66 66 66
69 70 71 72 74 72 73 72 72 72 72 71 71 70 70 70 70 70 70 69 70 70 70 71 71 70 71 71 72 72 72 72 72 71 71 71 70 70 70 70 70 70 70 69 69 69 70 69 68 68 67 66 67 66 66 66 67 67 67 67 69 68 69 71 67 61 62 62 63 63 63 63 64 65 66 65 65 65 65 64 64 66 66 65 65
69 70 71 72 72 72 72 72 72 72 71 70 71 70 70 70 70 70 70 71 71 70 70 71 71 71 71 71 72 72 72 72 72 71 71 71 71 70 70 70 70 70 69 69 70 70 70 69 69 68 67 67 67 67 67 67 67 67 67 67 68 69 69 72 61 61 61 61 62 63 63 63 64 65 65 65 65 65 64 65 65 65 65 65 64
70 70 70 71 71 73 72 72 72 72 71 71 71 71 71 70 70 70 71 71 71 71 71 71 71 70 70 71 72 72 72 72 72 71 71 71 70 70 70 70 70 70 70 70 70 70 69 69 69 68 67 67 67 67 67 66 66 67 67 68 69 69 70 66 64 61 61 61 62 61 62 64 63 65 64 65 64 64 64 66 65 65 65 65 65
69 69 70 70 71 71 72 72 72 72 71 71 71 71 71 71 71 71 71 70 70 71 71 70 70 70 70 71 71 71 71 71 71 71 71 71 71 70 69 70 70 70 69 69 70 70 70 69 69 68 68 67 67 67 67 65 67 67 67 68 69 69 71 65 60 60 61 61 61 61 62 63 66 65 63 64 63 64 65 64 65 64 65 64 63
68 69 70 70 70 71 71 72 72 72 71 72 71 71 71 71 71 71 71 71 71 71 70 70 70 70 71 71 71 71 71 71 71 71 71 71 71 70 69 69 70 70 70 70 70 70 70 69 69 68 68 67 67 67 66 66 66 67 68 69 69 70 71 64 60 60 60 60 62 63 62 62 66 64 64 64 65 65 65 65 65 65 64 63 62
69 69 69 69 70 70 70 70 71 72 72 72 71 71 71 71 71 71 71 70 70 69 69 70 71 71 71 71 71 71 71 71 70 70 71 70 70 70 69 70 69 69 70 70 70 69 69 69 69 68 67 67 67 67 66 67 67 68 68 69 69 69 70 64 59 59 60 62 61 61 62 62 64 65 64 64 65 65 65 65 64 64 63 63 62
69 68 67 68 68 69 70 70 70 71 71 71 71 71 71 71 72 71 71 71 71 72 72 72 72 71 71 71 71 71 71 70 70 70 70 70 70 70 69 69 69 69 69 70 70 69 69 69 68 68 67 67 67 66 66 67 67 67 68 68 69 69 71 67 62 62 62 64 62 63 64 67 66 64 63 65 65 65 64 64 63 62 62 62 62
69 67 67 66 67 68 69 70 70 70 70 70 70 70 71 71 71 71 71 72 72 72 72 72 71 71 71 71 71 71 70 70 70 70 70 70 70 70 69 69 69 69 69 70 69 69 69 69 69 67 67 67 66 66 66 67 67 67 67 69 69 69 69 64 61 61 62 61 61 62 64 65 65 64 63 63 63 62 61 62 63 63 63 61 60
70 71 69 66 66 67 68 68 69 69 69 70 71 70 71 71 71 71 71 72 72 72 72 72 71 71 71 70 71 71 70 70 70 70 70 70 70 70 69 69 69 68 69 69 69 69 69 68 68 68 67 66 66 65 66 66 66 67 68 69 68 68 63 60 60 60 61 62 63 62 65 64 62 62 63 63 61 63 62 63 62 60 61 61 61
69 69 70 69 67 66 66 67 68 68 68 69 70 70 71 71 71 71 71 71 71 72 72 71 71 71 70 71 71 70 69 69 69 69 70 70 70 70 69 69 69 69 69 69 70 69 68 68 68 68 67 66 66 65 65 66 66 68 68 68 68 63 63 60 60 61 60 62 63 63 64 63 63 63 63 63 62 62 62 62 61 61 62 62 61
68 68 69 69 67 66 66 67 67 67 68 69 70 70 71 71 70 70 70 70 71 72 71 71 72 70 71 70 68 68 67 68 68 70 68 69 69 70 69 69 69 69 69 69 69 69 69 68 68 67 67 66 66 64 65 67 66 67 68 68 64 64 62 60 60 60 61 62 64 63 63 63 63 63 62 63 63 63 62 62 61 61 61 61 61
67 67 68 69 68 66 67 67 67 67 68 68 70 70 69 70 70 70 70 71 71 70 70 70 70 70 70 69 68 67 67 68 67 69 69 69 69 69 69 69 69 69 69 69 69 69 69 68 68 67 67 67 65 64 62 61 60 65 67 65 63 64 61 60 60 61 61 62 61 63 63 63 62 61 61 61 62 61 61 61 61 60 61 60 61
66 66 67 69 69 69 69 69 68 69 68 69 69 69 68 68 69 69 69 69 69 69 68 68 68 68 69 68 67 66 67 67 69 70 69 68 68 69 69 69 69 69 69 69 69 69 69 69 68 68 68 68 64 64 60 59 60 61 61 62 63 64 60 60 60 60 61 62 61 63 62 62 62 61 61 61 61 61 61 61 61 60 60 60 60
66 67 67 69 69 70 70 70 70 70 70 70 69 69 69 69 68 68 68 68 68 68 68 67 67 68 68 68 68 68 68 67 67 68 69 68 67 66 67 67 68 68 69 68 68 68 68 67 66 67 65 65 64 62 62 59 60 62 62 63 64 61 59 59 59 59 59 60 62 65 62 62 61 61 61 61 61 60 61 60 60 60 60 60 60
67 66 66 68 69 69 69 70 70 69 69 70 70 70 70 68 68 68 67 67 68 68 67 67 67 68 67 68 69 68 68 67 66 67 68 68 66 65 66 66 66 67 69 67 67 67 67 66 66 67 66 64 63 62 62 64 59 61 62 63 64 60 59 59 59 59 60 61 63 62 62 62 61 61 61 61 61 61 60 60 60 61 60 60 61
66 66 67 68 69 69 69 69 69 69 69 70 69 70 69 69 68 68 67 66 68 67 67 67 68 68 68 68 67 67 67 67 66 67 67 67 67 66 65 65 65 65 68 67 67 67 66 65 63 64 64 63 63 62 63 64 62 60 61 62 61 60 60 60 59 60 61 61 63 62 62 62 62 61 61 61 61 61 61 61 61 61 61 60 60
66 67 67 68 69 69 69 69 69 69 69 69 69 69 68 68 68 69 67 69 68 67 67 67 68 67 68 68 68 67 67 67 66 67 67 66 66 67 67 66 63 63 67 66 66 66 65 64 63 62 62 62 62 63 64 64 63 61 60 61 62 60 60 60 60 60 60 60 61 62 62 63 64 61 61 61 62 62 62 62 62 61 61 61 61
66 67 67 68 69 69 69 68 68 69 69 70 69 68 68 68 68 67 67 69 67 67 68 68 68 68 68 68 69 67 67 67 66 66 66 66 66 66 67 66 66 66 65 64 65 65 64 63 63 62 62 62 62 63 63 61 63 62 61 60 62 61 60 60 60 60 60 60 60 62 62 62 63 62 61 61 61 61 62 62 62 62 62 61 61
66 67 67 67 68 69 68 69 69 69 69 69 69 68 68 68 68 67 67 69 67 68 68 67 68 68 67 68 68 68 67 67 66 66 66 65 65 65 67 66 67 67 66 64 65 64 63 63 64 63 62 63 62 60 64 61 62 62 62 61 60 61 60 60 60 59 60 60 60 62 62 64 65 64 63 62 63 63 62 62 62 62 62 62 62
66 67 67 67 68 68 68 69 69 69 68 68 68 68 68 68 68 68 68 67 68 68 68 67 68 68 68 67 68 68 67 67 67 67 66 66 66 66 66 67 67 67 66 66 65 65 64 64 64 65 65 65 64 63 62 62 63 61 63 61 60 61 60 60 60 60 60 60 61 61 62 62 62 63 63 64 63 62 63 63 63 63 62 62 62
66 66 67 67 67 67 68 68 68 68 68 68 69 68 67 68 68 68 68 68 68 68 68 68 69 68 68 67 67 68 68 67 67 67 67 66 66 66 66 66 66 66 67 67 66 66 65 65 67 67 67 66 66 64 63 63 62 61 62 61 60 61 60 60 60 60 61 61 61 61 61 61 63 62 62 64 64 63 62 63 63 63 63 63 62
66 67 67 68 67 67 68 68 68 68 68 68 68 68 68 68 68 68 69 69 68 68 68 68 68 68 68 68 67 68 68 67 68 68 68 67 66 66 66 66 66 66 67 67 67 66 65 65 66 67 66 65 65 64 64 63 61 60 61 60 62 60 61 59 60 61 61 61 61 61 61 62 61 64 65 63 65 65 63 63 63 63 63 63 63
66 67 67 67 68 69 69 69 68 68 68 68 68 68 68 68 68 68 70 68 68 68 68 68 68 68 69 68 68 68 67 67 68 68 68 67 66 66 66 65 66 66 66 65 65 65 64 64 64 66 67 64 63 63 63 62 62 62 62 61 61 60 62 60 60 60 60 60 60 60 60 61 62 63 64 64 65 65 66 63 63 63 63 63 63
67 68 68 68 68 68 69 69 69 68 69 68 68 68 68 69 68 69 69 68 68 68 68 68 68 69 69 69 68 68 68 68 68 67 67 66 67 66 66 66 66 66 65 65 65 65 65 65 65 64 64 64 64 63 63 62 62 62 62 62 60 62 62 61 60 59 59 59 59 59 60 61 62 63 64 63 66 66 65 64 64 65 64 63 64
67 67 68 68 68 68 69 69 69 69 69 69 68 68 69 68 68 70 69 68 68 67 68 68 68 68 68 68 68 68 68 68 68 68 67 67 67 66 66 66 66 66 65 64 65 65 65 64 64 65 64 64 63 63 62 62 62 63 63 63 63 63 63 62 59 58 58 58 58 59 60 61 62 63 65 64 64 65 65 65 66 66 65 64 64
67 67 67 67 67 68 69 68 68 68 68 69 69 69 69 68 68 68 68 66 66 66 67 68 68 67 67 68 68 68 68 68 68 68 68 67 67 66 66 66 66 65 64 65 65 65 64 64 64 64 64 63 62 62 62 62 63 63 62 64 64 64 63 63 62 60 59 58 58 59 60 62 63 65 64 64 64 64 66 65 67 66 66 65 64
68 67 67 67 66 67 67 68 67 68 68 68 68 68 68 68 68 67 67 66 66 66 67 67 67 68 69 68 67 68 68 68 68 68 68 67 67 67 66 67 67 66 66 66 66 65 65 64 63 64 64 63 62 62 63 64 63 62 63 65 64 64 64 64 63 63 61 61 61 61 62 63 63 63 64 63 63 64 64 65 67 66 66 66 65
67 67 67 67 67 68 67 68 68 68 68 68 68 68 68 68 67 67 68 67 65 66 66 66 66 66 68 67 67 67 68 68 68 67 67 67 67 66 66 67 67 66 66 66 65 65 65 64 64 64 65 64 63 63 64 62 62 63 64 64 64 64 64 64 64 62 61 63 62 63 64 64 64 64 64 64 63 64 64 64 64 65 65 66 66
66 67 67 67 67 67 66 66 66 68 68 67 67 67 66 65 65 66 65 66 66 66 66 66 66 66 67 67 67 67 67 67 67 67 67 67 66 66 66 66 67 66 65 65 65 64 64 64 63 64 64 64 64 63 63 62 62 62 63 63 63 63 65 64 64 63 61 61 63 63 63 64 65 65 65 65 64 64 63 64 66 65 65 66 66
63 64 65 66 67 67 66 66 66 66 66 66 65 65 65 65 65 65 65 65 65 65 65 66 66 66 67 67 67 68 66 66 67 67 67 68 67 66 66 66 66 66 65 65 65 64 64 64 63 64 64 63 63 63 61 62 62 61 61 61 61 63 64 64 64 63 62 61 62 62 62 63 63 64 65 64 65 65 63 64 64 65 64 65 65
61 62 63 63 64 65 66 66 66 66 66 65 65 66 66 66 65 65 65 65 64 65 64 65 65 65 65 65 67 66 65 65 66 66 67 67 67 66 66 66 66 66 65 65 65 65 65 64 64 63 64 63 62 63 63 62 60 59 58 58 59 61 62 63 63 63 63 61 60 61 62 62 62 63 64 64 64 64 64 64 64 64 64 64 64
61 61 61 62 62 63 64 65 66 66 66 67 66 65 66 67 66 66 66 66 66 67 66 65 65 65 64 64 66 66 66 65 65 66 66 67 67 66 66 66 66 66 65 64 64 64 65 64 64 64 62 62 62 64 63 62 60 60 60 58 56 56 58 61 63 63 63 62 63 61 61 61 61 62 63 63 64 64 64 64 64 64 64 64 64
60 60 61 61 61 62 62 63 65 66 67 65 66 66 66 66 66 67 67 66 65 66 65 66 64 65 65 66 66 66 65 65 65 65 66 67 66 66 66 65 66 66 65 64 64 64 64 64 64 63 62 61 61 62 64 63 62 60 56 56 56 56 54 57 60 61 62 62 62 61 61 61 60 62 62 62 62 64 64 64 64 63 64 64 64
59 59 60 60 61 61 62 63 64 65 64 64 64 66 66 66 66 66 66 65 64 65 65 64 65 64 64 64 65 65 65 65 66 65 66 66 66 66 66 65 65 65 65 65 64 64 64 64 64 63 63 62 61 60 62 63 62 61 58 57 55 55 55 56 59 59 60 61 62 62 61 60 61 61 61 61 60 62 63 63 64 63 64 64 63
58 59 59 60 60 60 61 61 62 63 62 62 63 64 64 64 65 64 63 62 62 63 63 62 63 64 64 65 65 65 65 65 65 65 65 66 66 66 66 65 65 65 65 65 64 64 64 64 64 64 63 62 61 61 61 62 62 62 61 59 58 56 56 58 58 55 58 61 61 61 61 61 62 61 60 60 60 58 62 62 63 63 63 63 63
58 59 59 59 59 59 60 60 60 60 61 61 62 63 62 63 64 64 64 63 63 63 64 65 65 66 66 65 65 64 65 65 64 66 65 66 66 66 66 66 65 65 65 64 64 64 64 64 64 64 63 63 62 60 60 61 62 62 62 62 62 61 61 59 56 56 55 57 60 61 61 62 61 60 59 59 59 57 61 62 62 63 63 63 62
58 58 58 58 58 59 59 59 59 60 60 61 60 61 61 62 62 63 63 64 64 64 65 65 65 65 66 66 66 65 65 65 65 65 65 65 66 66 66 66 65 65 66 65 65 65 65 65 65 64 64 63 62 61 61 61 61 60 62 61 62 62 61 61 60 57 56 55 57 59 61 61 60 60 59 58 58 57 60 62 62 63 62 62 61
57 57 58 58 58 58 59 58 58 58 59 60 60 60 60 61 61 61 61 62 63 63 64 64 64 65 65 64 65 65 65 64 63 64 65 64 66 66 66 66 65 65 66 65 65 65 65 64 64 63 63 63 63 63 62 61 61 60 61 61 62 62 61 61 61 60 56 55 55 57 58 59 60 60 59 59 57 57 59 61 62 62 62 61 61
57 57 57 57 58 57 58 57 57 58 58 58 59 60 60 60 60 60 60 60 61 61 62 62 63 63 64 64 65 65 64 65 65 65 64 64 64 65 65 65 65 65 65 65 64 64 64 64 64 64 64 63 63 63 63 62 62 62 62 62 61 61 61 60 60 60 59 57 55 56 57 57 57 59 60 59 58 58 59 60 61 60 60 60 60
55 56 56 57 57 56 57 56 56 57 57 57 58 59 59 59 59 59 59 59 59 60 59 60 61 61 62 62 63 63 64 64 65 65 65 63 63 64 63 64 65 65 65 65 64 64 64 64 65 64 64 63 63 63 63 63 62 62 62 62 62 61 60 59 59 60 59 57 56 57 57 57 57 57 58 59 58 58 59 60 60 59 59 59 58